This is the latest recevied weather packets stored in our database for station/object KE8URB. If no packets are shown the sender has not sent any weather packets the latest 10 day(s).
| Time | Temp. | Humidity | Pressure | Rain* | Wind** | Luminosity | Snow |
|---|---|---|---|---|---|---|---|
| 1788101573 | 25.56° C | 75% | 1021.7 hPa | 0 mm | - | 362 W/m² | - |
| 1788101268 | 25° C | 77% | 1021.8 hPa | 0 mm | - | 77 W/m² | - |
| 1788100963 | 25° C | 78% | 1021.6 hPa | 0 mm | - | 89 W/m² | - |
| 1788100659 | 25° C | 78% | 1021.6 hPa | 0 mm | - | 140 W/m² | - |
| 1788100357 | 24.44° C | 80% | 1021.3 hPa | 0 mm | - | 80 W/m² | - |
| 1788100053 | 24.44° C | 79% | 1021.4 hPa | 0 mm | - | 70 W/m² | - |
| 1788099748 | 24.44° C | 81% | 1021.2 hPa | 0 mm | - | 63 W/m² | - |
| 1788099443 | 23.89° C | 80% | 1021.5 hPa | 0 mm | - | 58 W/m² | - |
| 1788099139 | 23.89° C | 80% | 1021.2 hPa | 0 mm | - | 55 W/m² | - |
| 1788098833 | 23.89° C | 81% | 1021.3 hPa | 0 mm | - | 54 W/m² | - |
| 1788098528 | 23.89° C | 82% | 1021.3 hPa | 0 mm | - | 51 W/m² | - |
| 1788098223 | 23.89° C | 82% | 1021.4 hPa | 0 mm | - | 50 W/m² | - |
| 1788097918 | 23.33° C | 82% | 1021.2 hPa | 0 mm | - | 72 W/m² | - |
| 1788097614 | 23.33° C | 82% | 1021.4 hPa | 0 mm | - | 59 W/m² | - |
| 1788097309 | 23.89° C | 82% | 1021.4 hPa | 0 mm | - | 61 W/m² | - |
| 1788097004 | 23.33° C | 81% | 1021.5 hPa | 0 mm | - | 62 W/m² | - |
| 1788096700 | 23.33° C | 82% | 1021.3 hPa | 0 mm | - | 70 W/m² | - |
| 1788096396 | 22.78° C | 83% | 1021.4 hPa | 0 mm | - | 58 W/m² | - |
| 1788096091 | 22.78° C | 84% | 1021.3 hPa | 0 mm | - | 55 W/m² | - |
| 1788095790 | 22.22° C | 86% | 1021.2 hPa | 0 mm | - | 56 W/m² | - |
| 1788095485 | 21.67° C | 88% | 1021.1 hPa | 0 mm | - | 59 W/m² | - |
| 1788095180 | 21.11° C | 89% | 1021.2 hPa | 0 mm | - | 51 W/m² | - |
| 1788094875 | 21.11° C | 90% | 1021.3 hPa | 0 mm | - | 47 W/m² | - |
| 1788094568 | 20.56° C | 90% | 1021.4 hPa | 0 mm | - | 42 W/m² | - |
| 1788094268 | 20.56° C | 90% | 1021.5 hPa | 0 mm | - | 37 W/m² | - |
* Rain latest hour (hover to see other rain measurements)
** Current wind speed in m/s (hover to see current wind gust speed)